Content
SEND FEEDBACK

Daily
Averages
Monthly
Summary
Spain

BADALONA, SPAIN


Home > Europe > Spain
Elevation: 312 feet     Latitude: 41 24N     Longitude: 002 12E

WEATHER
 
SELECT A DAY
Number of Records: 290,367;   Date Range: 7/1/96 - 9/3/14
 
SHARE

PRINT THIS DATA

[ ← Previous Day ]
WEATHER ALMANAC - JANUARY 31, 2013
[ Next Day → ]
[ °C ]   °F
Weather ElementAverageHighLow
Temperature56.7 °F64 °F (1:00 pm)51 °F (7:00 am)
Dewpoint48.2 °F51.8 °F (2:30 pm)43 °F (7:00 am)
Humidity73 %88 % (9:00 pm)44 % (1:00 pm)
Barometer30.35 in30.42 in (10:00 am)30.30 in (4:30 pm)
Wind Speed9.1 mph16.1 mph (6:30 am)
Weather ElementAverage
Visibility7.6 mi
Wind DirectionWSW (262.2 °)

Weather ElementTotal
Precipitation---
Heating Degree Days7.5 (Base 65)
Growing Degree Days7.5 (Base 50)
Averaged from 50 records on January 31, 2013
WEATHER CONDITIONS BREAKOUT
WIND DIRECTION BREAKOUT
WEATHER BY HOUR - JANUARY 31, 2013
[ °C ]   °F
Local TimeTemperatureDewpointHumidityBarometerVisibilityWind DirectionWind SpeedGust SpeedPrecipitationEventsConditions
12:30 AM53.6 °F48.2 °F82 %30.33 in6.2 miNW (320°)12.7 mphPartly Cloudy
1:00 AM52.0 °F46.0 °F73 %30.35 in11.0 miNW (310°)3.5 mphScattered Clouds
1:00 AM53.6 °F48.2 °F82 %30.33 in6.2 miNW (310°)12.7 mphPartly Cloudy
1:30 AM55.4 °F48.2 °F77 %30.33 in6.2 miNW (320°)10.4 mphPartly Cloudy
2:00 AM55.4 °F46.4 °F72 %30.33 in6.2 miNW (320°)8.1 mphPartly Cloudy
2:30 AM51.8 °F46.4 °F82 %30.33 in6.2 miWNW (290°)11.5 mphPartly Cloudy
3:00 AM53.6 °F48.2 °F82 %30.33 in6.2 miNW (310°)8.1 mphPartly Cloudy
3:30 AM51.8 °F46.4 °F82 %30.33 in6.2 miNNW (330°)5.8 mphPartly Cloudy
4:00 AM53.6 °F46.4 °F77 %30.33 in6.2 miNNW (330°)15.0 mphPartly Cloudy
4:30 AM53.6 °F46.4 °F77 %30.33 in6.2 miNW (320°)15.0 mphPartly Cloudy
5:00 AM51.8 °F44.6 °F76 %30.33 in6.2 miNNW (330°)11.5 mphPartly Cloudy
5:30 AM51.8 °F44.6 °F76 %30.33 in6.2 miNW (320°)9.2 mphPartly Cloudy
6:00 AM53.6 °F46.4 °F77 %30.36 in6.2 miNW (310°)9.2 mphPartly Cloudy
6:30 AM53.6 °F44.6 °F72 %30.33 in6.2 miNW (310°)16.1 mphPartly Cloudy
7:00 AM51.0 °F43.0 °F67 %30.37 in9.0 miNNW (340°)11.5 mphScattered Clouds
7:00 AM51.8 °F44.6 °F76 %30.36 in6.2 miNW (310°)10.4 mphPartly Cloudy
7:30 AM51.8 °F44.6 °F76 %30.36 in6.2 miNW (320°)13.8 mphPartly Cloudy
8:00 AM51.8 °F44.6 °F76 %30.39 inNW (310°)13.8 mphClear
8:30 AM51.8 °F44.6 °F76 %30.39 inNW (320°)13.8 mphClear
9:00 AM53.6 °F44.6 °F72 %30.39 inWNW (290°)12.7 mphClear
9:30 AM53.6 °F44.6 °F72 %30.39 inWNW (300°)12.7 mphClear
10:00 AM55.4 °F46.4 °F72 %30.42 inNW (320°)15.0 mphClear
10:30 AM57.2 °F46.4 °F67 %30.42 inNW (310°)10.4 mphClear
11:00 AM59.0 °F46.4 °F63 %30.42 inNW (320°)10.4 mphClear
11:30 AM59.0 °F46.4 °F63 %30.42 inNW (310°)9.2 mphClear
12:00 PM60.8 °F48.2 °F63 %30.42 inNNW (330°)5.8 mphClear
12:30 PM62.6 °F48.2 °F59 %30.39 inVariable2.3 mphClear
1:00 PM64.0 °F47.0 °F44 %30.41 in12.0 miSouth (170°)5.8 mphClear
1:30 PM62.6 °F48.2 °F59 %30.39 inSouth (190°)8.1 mphClear
2:00 PM62.6 °F50.0 °F63 %30.36 inSouth (170°)8.1 mphClear
2:30 PM60.8 °F51.8 °F72 %30.36 inSouth (180°)9.2 mphClear
3:00 PM60.8 °F50.0 °F68 %30.33 inSouth (190°)6.9 mphClear
3:30 PM60.8 °F50.0 °F68 %30.33 inSSW (200°)5.8 mphClear
4:00 PM62.6 °F51.8 °F68 %30.33 inSSW (200°)6.9 mphClear
4:30 PM60.8 °F51.8 °F72 %30.30 inSouth (170°)6.9 mphClear
5:00 PM62.6 °F51.8 °F68 %30.30 inSouth (170°)8.1 mphClear
5:30 PM62.6 °F50.0 °F63 %30.30 inSSW (210°)11.5 mphClear
6:00 PM62.6 °F50.0 °F63 %30.30 inSouth (190°)8.1 mphClear
6:30 PM60.8 °F50.0 °F68 %30.33 inSouth (190°)9.2 mphClear
7:00 PM60.0 °F49.0 °F59 %30.33 in19.0 miSSW (210°)9.2 mphScattered Clouds
7:00 PM60.8 °F50.0 °F68 %30.33 inSouth (190°)8.1 mphClear
7:30 PM59.0 °F50.0 °F72 %30.33 inSouth (190°)6.9 mphClear
8:00 PM59.0 °F51.8 °F77 %30.33 inSW (220°)6.9 mphClear
8:30 PM57.2 °F51.8 °F82 %30.33 inWSW (240°)6.9 mphClear
9:00 PM55.4 °F51.8 °F88 %30.33 inWSW (250°)6.9 mphClear
9:30 PM55.4 °F51.8 °F88 %30.33 inWest (260°)6.9 mphClear
10:00 PM55.4 °F51.8 °F88 %30.33 inWSW (250°)5.8 mphClear
10:30 PM55.4 °F51.8 °F88 %30.33 inWNW (290°)4.6 mphClear
11:00 PM55.4 °F51.8 °F88 %30.33 inWest (270°)3.5 mphClear
11:30 PM53.6 °F50.0 °F88 %30.30 inWNW (300°)3.5 mphClear
Hourly data recorded from LEBL, located miles away from Badalona, Spain







STORIES FROM OUR PARTNERS